| time (UTC) | temp F | wind direction | speed MPH | gust MPH | rain 1hr in | rain 24hr in | rain mn in | humidity % | barometer mb |
| 20260903202623 | 91 | 55 | 3.0 | 8.0 | 0.00 | 0.00 | 0.00 | 66 | 1010.1 |
| 20260903202112 | 91 | 126 | 3.0 | 8.0 | 0.00 | 0.00 | 0.00 | 66 | 1010.1 |
| 20260903201611 | 91 | 111 | 2.0 | 8.0 | 0.00 | 0.00 | 0.00 | 65 | 1010.1 |
| 20260903201105 | 91 | 121 | 1.0 | 7.0 | 0.00 | 0.00 | 0.00 | 65 | 1010.1 |
| 20260903200830 | 91 | 76 | 2.0 | 8.0 | 0.00 | 0.00 | 0.00 | 65 | 1010.1 |
| 20260903200051 | 91 | 71 | 4.0 | 9.0 | 0.00 | 0.00 | 0.00 | 65 | 1010.1 |
| 20260903195804 | 92 | 96 | 3.0 | 9.0 | 0.00 | 0.00 | 0.00 | 64 | 1010.2 |
| 20260903195039 | 92 | 71 | 1.0 | 9.0 | 0.00 | 0.00 | 0.00 | 64 | 1010.2 |
| 20260903194533 | 92 | 140 | 1.0 | 3.0 | 0.00 | 0.00 | 0.00 | 64 | 1010.2 |
| 20260903194253 | 92 | 146 | 0.0 | 3.0 | 0.00 | 0.00 | 0.00 | 64 | 1010.4 |
| 20260903193746 | 92 | 15 | 0.0 | 3.0 | 0.00 | 0.00 | 0.00 | 63 | 1010.4 |
| 20260903193024 | 92 | 64 | 1.0 | 4.0 | 0.00 | 0.00 | 0.00 | 65 | 1010.4 |
| 20260903192525 | 91 | 131 | 2.0 | 5.0 | 0.00 | 0.00 | 0.00 | 65 | 1010.8 |
| 20260903192022 | 91 | 104 | 2.0 | 7.0 | 0.00 | 0.00 | 0.00 | 65 | 1010.8 |
| 20260903191522 | 90 | 14 | 3.0 | 8.0 | 0.00 | 0.00 | 0.00 | 66 | 1010.8 |
| 20260903191020 | 91 | 60 | 3.0 | 8.0 | 0.00 | 0.00 | 0.00 | 65 | 1010.9 |
| 20260903190520 | 91 | 81 | 2.0 | 8.0 | 0.00 | 0.00 | 0.00 | 65 | 1010.9 |
| 20260903190244 | 90 | 41 | 3.0 | 8.0 | 0.00 | 0.00 | 0.00 | 65 | 1010.9 |
| 20260903185958 | 90 | 17 | 3.0 | 7.0 | 0.00 | 0.00 | 0.00 | 66 | 1010.9 |
| 20260903185023 | 90 | 119 | 4.0 | 9.0 | 0.00 | 0.00 | 0.00 | 67 | 1010.9 |
| 20260903184744 | 90 | 289 | 4.0 | 9.0 | 0.00 | 0.00 | 0.00 | 67 | 1010.9 |
| 20260903184018 | 90 | 44 | 3.0 | 9.0 | 0.00 | 0.00 | 0.00 | 67 | 1011.0 |
| 20260903183506 | 89 | 71 | 3.0 | 9.0 | 0.00 | 0.00 | 0.00 | 67 | 1011.0 |
| 20260903182954 | 89 | 341 | 3.0 | 9.0 | 0.00 | 0.00 | 0.00 | 66 | 1011.3 |
| 20260903182443 | 89 | 28 | 4.0 | 8.0 | 0.00 | 0.00 | 0.00 | 68 | 1011.3 |
| 20260903181931 | 89 | 0 | 4.0 | 8.0 | 0.00 | 0.00 | 0.00 | 66 | 1011.3 |
| 20260903181644 | 89 | 70 | 5.0 | 11.0 | 0.00 | 0.00 | 0.00 | 67 | 1011.3 |
| 20260903180920 | 89 | 27 | 6.0 | 11.0 | 0.00 | 0.00 | 0.00 | 68 | 1011.3 |
| 20260903180415 | 89 | 355 | 6.0 | 12.0 | 0.00 | 0.00 | 0.00 | 68 | 1011.3 |
| 20260903175908 | 89 | 348 | 6.0 | 12.0 | 0.00 | 0.00 | 0.00 | 68 | 1011.3 |
| 20260903175404 | 89 | 33 | 6.0 | 12.0 | 0.00 | 0.00 | 0.00 | 68 | 1011.3 |
| 20260903174856 | 90 | 36 | 6.0 | 12.0 | 0.00 | 0.00 | 0.00 | 67 | 1011.3 |
| 20260903174612 | 90 | 355 | 5.0 | 10.0 | 0.00 | 0.00 | 0.00 | 67 | 1011.3 |
| 20260903173839 | 90 | 336 | 3.0 | 9.0 | 0.00 | 0.00 | 0.00 | 66 | 1011.3 |
| 20260903173337 | 90 | 311 | 3.0 | 8.0 | 0.00 | 0.00 | 0.00 | 65 | 1011.3 |
| 20260903172831 | 90 | 221 | 4.0 | 8.0 | 0.00 | 0.00 | 0.00 | 66 | 1011.4 |
| 20260903172325 | 90 | 252 | 4.0 | 9.0 | 0.00 | 0.00 | 0.00 | 65 | 1011.4 |
| 20260903171819 | 90 | 130 | 4.0 | 9.0 | 0.00 | 0.00 | 0.00 | 66 | 1011.4 |
| 20260903171531 | 90 | 9 | 5.0 | 12.0 | 0.00 | 0.00 | 0.00 | 66 | 1011.3 |
| 20260903170807 | 90 | 41 | 4.0 | 12.0 | 0.00 | 0.00 | 0.00 | 65 | 1011.3 |
| 20260903170303 | 90 | 344 | 3.0 | 8.0 | 0.00 | 0.00 | 0.00 | 67 | 1011.3 |
| 20260903165755 | 90 | 5 | 4.0 | 9.0 | 0.00 | 0.00 | 0.00 | 67 | 1010.9 |
| 20260903164738 | 89 | 283 | 5.0 | 10.0 | 0.00 | 0.00 | 0.00 | 67 | 1010.9 |
| 20260903164237 | 89 | 188 | 5.0 | 10.0 | 0.00 | 0.00 | 0.00 | 69 | 1010.8 |
| 20260903164205 | 89 | 235 | 5.0 | 9.0 | 0.00 | 0.00 | 0.00 | 68 | 1010.8 |
| 20260903163224 | 89 | 201 | 4.0 | 9.0 | 0.00 | 0.00 | 0.00 | 68 | 1010.8 |
| 20260903162720 | 89 | 205 | 3.0 | 7.0 | 0.00 | 0.00 | 0.00 | 69 | 1010.9 |
| 20260903162215 | 88 | 242 | 4.0 | 9.0 | 0.00 | 0.00 | 0.00 | 69 | 1010.9 |
| 20260903161709 | 88 | 213 | 4.0 | 9.0 | 0.00 | 0.00 | 0.00 | 70 | 1010.9 |
| 20260903161156 | 88 | 190 | 4.0 | 11.0 | 0.00 | 0.00 | 0.00 | 70 | 1010.8 |
| 20260903160656 | 88 | 226 | 4.0 | 11.0 | 0.00 | 0.00 | 0.00 | 69 | 1010.8 |
| 20260903160146 | 88 | 221 | 3.0 | 8.0 | 0.00 | 0.00 | 0.00 | 70 | 1010.8 |
| 20260903155643 | 87 | 227 | 4.0 | 9.0 | 0.00 | 0.00 | 0.00 | 71 | 1010.8 |
| 20260903155353 | 87 | 236 | 4.0 | 9.0 | 0.00 | 0.00 | 0.00 | 70 | 1010.8 |
| 20260903154627 | 87 | 222 | 4.0 | 10.0 | 0.00 | 0.00 | 0.00 | 70 | 1010.8 |
| 20260903154353 | 87 | 236 | 4.0 | 10.0 | 0.00 | 0.00 | 0.00 | 71 | 1010.9 |
| 20260903153618 | 86 | 198 | 4.0 | 9.0 | 0.00 | 0.00 | 0.00 | 72 | 1010.9 |
| 20260903153558 | 86 | 244 | 4.0 | 9.0 | 0.00 | 0.00 | 0.00 | 73 | 1010.9 |
| 20260903152837 | 86 | 213 | 4.0 | 10.0 | 0.00 | 0.00 | 0.00 | 73 | 1010.9 |
| 20260903152324 | 85 | 242 | 5.0 | 10.0 | 0.00 | 0.00 | 0.00 | 73 | 1010.9 |
| 20260903151555 | 85 | 254 | 5.0 | 11.0 | 0.00 | 0.00 | 0.00 | 73 | 1010.9 |
| 20260903151045 | 85 | 257 | 5.0 | 11.0 | 0.00 | 0.00 | 0.00 | 73 | 1010.9 |
| 20260903150543 | 85 | 230 | 5.0 | 10.0 | 0.00 | 0.00 | 0.00 | 74 | 1010.9 |
| 20260903150036 | 85 | 238 | 4.0 | 10.0 | 0.00 | 0.00 | 0.00 | 75 | 1010.9 |
| 20260903145530 | 84 | 173 | 3.0 | 7.0 | 0.00 | 0.00 | 0.00 | 75 | 1010.9 |
| 20260903145249 | 84 | 232 | 4.0 | 8.0 | 0.00 | 0.00 | 0.00 | 75 | 1010.9 |
| 20260903144516 | 84 | 248 | 4.0 | 8.0 | 0.00 | 0.00 | 0.00 | 76 | 1010.9 |
| 20260903144006 | 84 | 231 | 4.0 | 9.0 | 0.00 | 0.00 | 0.00 | 75 | 1010.9 |
| 20260903143454 | 84 | 290 | 4.0 | 9.0 | 0.00 | 0.00 | 0.00 | 75 | 1010.9 |
| 20260903142942 | 83 | 258 | 5.0 | 8.0 | 0.00 | 0.00 | 0.00 | 76 | 1010.8 |
| 20260903142508 | 83 | 198 | 5.0 | 9.0 | 0.00 | 0.00 | 0.00 | 76 | 1010.8 |
| 20260903141847 | 82 | 227 | 5.0 | 9.0 | 0.00 | 0.00 | 0.00 | 77 | 1010.8 |
| 20260903141117 | 82 | 212 | 5.0 | 9.0 | 0.00 | 0.00 | 0.00 | 78 | 1010.8 |
| 20260903140341 | 82 | 221 | 4.0 | 9.0 | 0.00 | 0.00 | 0.00 | 78 | 1010.8 |
| 20260903135828 | 81 | 232 | 4.0 | 8.0 | 0.00 | 0.00 | 0.00 | 80 | 1010.8 |
| 20260903135316 | 81 | 240 | 4.0 | 8.0 | 0.00 | 0.00 | 0.00 | 80 | 1010.8 |
| 20260903134811 | 80 | 195 | 3.0 | 8.0 | 0.00 | 0.00 | 0.00 | 81 | 1010.8 |
| 20260903134306 | 80 | 207 | 4.0 | 10.0 | 0.00 | 0.00 | 0.00 | 81 | 1010.8 |
| 20260903133755 | 80 | 225 | 5.0 | 10.0 | 0.00 | 0.00 | 0.00 | 82 | 1010.8 |
| 20260903133252 | 79 | 246 | 4.0 | 10.0 | 0.00 | 0.00 | 0.00 | 82 | 1010.8 |
| 20260903132746 | 79 | 196 | 4.0 | 10.0 | 0.00 | 0.00 | 0.00 | 83 | 1010.9 |
| 20260903132459 | 78 | 181 | 4.0 | 9.0 | 0.00 | 0.00 | 0.00 | 83 | 1010.9 |
| 20260903131956 | 78 | 244 | 3.0 | 9.0 | 0.00 | 0.00 | 0.00 | 84 | 1010.9 |
| 20260903131452 | 78 | 229 | 3.0 | 9.0 | 0.00 | 0.00 | 0.00 | 84 | 1011.0 |
| 20260903130948 | 77 | 169 | 3.0 | 7.0 | 0.00 | 0.00 | 0.00 | 84 | 1011.0 |
| 20260903130211 | 77 | 225 | 3.0 | 7.0 | 0.00 | 0.00 | 0.00 | 85 | 1011.0 |
| 20260903125710 | 77 | 213 | 3.0 | 7.0 | 0.00 | 0.00 | 0.00 | 85 | 1011.1 |
| 20260903125206 | 77 | 214 | 3.0 | 5.0 | 0.00 | 0.00 | 0.00 | 85 | 1011.1 |
| 20260903124658 | 76 | 177 | 3.0 | 5.0 | 0.00 | 0.00 | 0.00 | 86 | 1011.1 |
| 20260903124151 | 76 | 196 | 2.0 | 5.0 | 0.00 | 0.00 | 0.00 | 86 | 1011.1 |
| 20260903123641 | 76 | 215 | 2.0 | 5.0 | 0.00 | 0.00 | 0.00 | 86 | 1011.1 |
| 20260903123140 | 76 | 207 | 1.0 | 4.0 | 0.00 | 0.00 | 0.00 | 87 | 1011.1 |
| 20260903122635 | 75 | 148 | 1.0 | 4.0 | 0.00 | 0.00 | 0.00 | 87 | 1011.1 |
| 20260903122128 | 75 | 200 | 1.0 | 4.0 | 0.00 | 0.00 | 0.00 | 87 | 1011.1 |
| 20260903121623 | 75 | 219 | 1.0 | 5.0 | 0.00 | 0.00 | 0.00 | 87 | 1011.1 |
| 20260903121113 | 75 | 217 | 1.0 | 5.0 | 0.00 | 0.00 | 0.00 | 87 | 1011.0 |
| 20260903120833 | 75 | 178 | 1.0 | 3.0 | 0.00 | 0.00 | 0.00 | 87 | 1011.0 |
| 20260903120104 | 75 | 191 | 1.0 | 3.0 | 0.00 | 0.00 | 0.00 | 87 | 1011.0 |
| 20260903115640 | 75 | 211 | 1.0 | 3.0 | 0.00 | 0.00 | 0.00 | 87 | 1011.0 |
| 20260903114805 | 74 | 178 | 1.0 | 4.0 | 0.00 | 0.00 | 0.00 | 87 | 1011.0 |
| 20260903114040 | 74 | 191 | 1.0 | 4.0 | 0.00 | 0.00 | 0.00 | 87 | 1010.9 |
| 20260903113535 | 74 | 207 | 1.0 | 4.0 | 0.00 | 0.00 | 0.00 | 87 | 1010.9 |
| 20260903113029 | 74 | 224 | 1.0 | 4.0 | 0.00 | 0.00 | 0.00 | 87 | 1010.9 |
| 20260903112523 | 75 | 180 | 1.0 | 4.0 | 0.00 | 0.00 | 0.00 | 87 | 1010.9 |
| 20260903112015 | 75 | 237 | 0.0 | 4.0 | 0.00 | 0.00 | 0.00 | 87 | 1010.9 |
| 20260903111511 | 75 | 213 | 1.0 | 3.0 | 0.00 | 0.00 | 0.00 | 87 | 1010.9 |
| 20260903111000 | 75 | 219 | 1.0 | 3.0 | 0.00 | 0.00 | 0.00 | 87 | 1010.9 |
| 20260903110458 | 75 | 236 | 1.0 | 4.0 | 0.00 | 0.00 | 0.00 | 87 | 1010.9 |
| 20260903105952 | 75 | 229 | 1.0 | 4.0 | 0.00 | 0.00 | 0.00 | 86 | 1010.8 |
| 20260903105445 | 75 | 221 | 2.0 | 4.0 | 0.00 | 0.00 | 0.00 | 86 | 1010.8 |
| 20260903104940 | 75 | 223 | 2.0 | 5.0 | 0.00 | 0.00 | 0.00 | 86 | 1010.8 |
| 20260903104432 | 75 | 223 | 1.0 | 5.0 | 0.00 | 0.00 | 0.00 | 86 | 1010.8 |
| 20260903104141 | 75 | 234 | 2.0 | 5.0 | 0.00 | 0.00 | 0.00 | 86 | 1010.8 |
| 20260903103407 | 75 | 244 | 2.0 | 6.0 | 0.00 | 0.00 | 0.00 | 86 | 1010.8 |
| 20260903103118 | 75 | 225 | 2.0 | 6.0 | 0.00 | 0.00 | 0.00 | 86 | 1010.8 |
| 20260903102358 | 75 | 194 | 2.0 | 4.0 | 0.00 | 0.00 | 0.00 | 86 | 1010.8 |
| 20260903101859 | 75 | 161 | 2.0 | 6.0 | 0.00 | 0.00 | 0.00 | 86 | 1010.8 |
| 20260903101359 | 75 | 190 | 2.0 | 6.0 | 0.00 | 0.00 | 0.00 | 86 | 1010.8 |
| 20260903100859 | 75 | 226 | 1.0 | 4.0 | 0.00 | 0.00 | 0.00 | 86 | 1010.8 |
| 20260903100358 | 76 | 196 | 1.0 | 3.0 | 0.00 | 0.00 | 0.00 | 86 | 1010.8 |
| 20260903095901 | 76 | 213 | 2.0 | 5.0 | 0.00 | 0.00 | 0.00 | 86 | 1010.8 |
| 20260903095401 | 76 | 224 | 2.0 | 5.0 | 0.00 | 0.00 | 0.00 | 86 | 1010.8 |
| 20260903094857 | 76 | 213 | 1.0 | 4.0 | 0.00 | 0.00 | 0.00 | 86 | 1010.8 |
| 20260903094620 | 76 | 222 | 1.0 | 4.0 | 0.00 | 0.00 | 0.00 | 86 | 1010.8 |
| 20260903093851 | 76 | 213 | 2.0 | 4.0 | 0.00 | 0.00 | 0.00 | 86 | 1010.8 |
| 20260903093347 | 76 | 188 | 2.0 | 6.0 | 0.00 | 0.00 | 0.00 | 86 | 1010.8 |
| 20260903092840 | 76 | 225 | 2.0 | 4.0 | 0.00 | 0.00 | 0.00 | 86 | 1010.7 |
| 20260903092330 | 76 | 215 | 1.0 | 4.0 | 0.00 | 0.00 | 0.00 | 86 | 1010.7 |
| 20260903091825 | 76 | 203 | 1.0 | 3.0 | 0.00 | 0.00 | 0.00 | 86 | 1010.7 |
| 20260903091320 | 76 | 231 | 1.0 | 3.0 | 0.00 | 0.00 | 0.00 | 86 | 1010.4 |
| 20260903091032 | 76 | 216 | 1.0 | 3.0 | 0.00 | 0.00 | 0.00 | 86 | 1010.4 |
| 20260903090308 | 76 | 205 | 1.0 | 3.0 | 0.00 | 0.00 | 0.00 | 86 | 1010.4 |
| 20260903085800 | 76 | 197 | 1.0 | 3.0 | 0.00 | 0.00 | 0.00 | 86 | 1010.4 |
| 20260903085255 | 76 | 200 | 1.0 | 3.0 | 0.00 | 0.00 | 0.00 | 86 | 1010.4 |
| 20260903084750 | 77 | 218 | 1.0 | 3.0 | 0.00 | 0.00 | 0.00 | 86 | 1010.4 |
| 20260903084239 | 77 | 196 | 1.0 | 5.0 | 0.00 | 0.00 | 0.00 | 86 | 1010.4 |
| 20260903083738 | 77 | 212 | 1.0 | 5.0 | 0.00 | 0.00 | 0.00 | 86 | 1010.4 |
| 20260903083225 | 77 | 231 | 1.0 | 5.0 | 0.00 | 0.00 | 0.00 | 86 | 1010.4 |
| 20260903082725 | 77 | 220 | 0.0 | 2.0 | 0.00 | 0.00 | 0.00 | 86 | 1010.4 |
| 20260903082220 | 77 | 194 | 0.0 | 2.0 | 0.00 | 0.00 | 0.00 | 86 | 1010.4 |
| 20260903081714 | 77 | 193 | 1.0 | 3.0 | 0.00 | 0.00 | 0.00 | 86 | 1010.4 |
| 20260903081208 | 77 | 239 | 1.0 | 4.0 | 0.00 | 0.00 | 0.00 | 85 | 1010.4 |
| 20260903080653 | 77 | 229 | 1.0 | 4.0 | 0.00 | 0.00 | 0.00 | 86 | 1010.4 |
| 20260903080157 | 78 | 234 | 2.0 | 5.0 | 0.00 | 0.00 | 0.00 | 86 | 1010.4 |
| 20260903075650 | 78 | 216 | 3.0 | 6.0 | 0.00 | 0.00 | 0.00 | 86 | 1010.4 |
| 20260903075401 | 78 | 230 | 3.0 | 7.0 | 0.00 | 0.00 | 0.00 | 86 | 1010.4 |
| 20260903074637 | 78 | 231 | 3.0 | 7.0 | 0.00 | 0.00 | 0.00 | 86 | 1010.4 |
| 20260903074130 | 78 | 217 | 3.0 | 6.0 | 0.00 | 0.00 | 0.00 | 86 | 1010.3 |
| 20260903073625 | 78 | 227 | 3.0 | 6.0 | 0.00 | 0.00 | 0.00 | 86 | 1010.3 |
| 20260903073119 | 78 | 221 | 2.0 | 5.0 | 0.00 | 0.00 | 0.00 | 86 | 1010.3 |
| 20260903072841 | 77 | 227 | 1.0 | 5.0 | 0.00 | 0.00 | 0.00 | 87 | 1010.4 |
| 20260903072108 | 77 | 211 | 0.0 | 2.0 | 0.00 | 0.00 | 0.00 | 87 | 1010.4 |
| 20260903071600 | 78 | 189 | 0.0 | 1.0 | 0.00 | 0.00 | 0.00 | 87 | 1010.4 |
| 20260903071056 | 78 | 214 | 0.0 | 1.0 | 0.00 | 0.00 | 0.00 | 87 | 1010.3 |
| 20260903070541 | 78 | 209 | 0.0 | 1.0 | 0.00 | 0.00 | 0.00 | 87 | 1010.3 |
| 20260903070044 | 78 | 200 | 0.0 | 0.0 | 0.00 | 0.00 | 0.00 | 87 | 1010.3 |
| 20260903065537 | 78 | 199 | 0.0 | 0.0 | 0.00 | 0.00 | 0.00 | 87 | 1010.3 |
| 20260903065032 | 78 | 219 | 0.0 | 0.0 | 0.00 | 0.00 | 0.00 | 87 | 1010.3 |
| 20260903064524 | 78 | 238 | 0.0 | 0.0 | 0.00 | 0.00 | 0.00 | 87 | 1010.3 |
| 20260903064019 | 78 | 228 | 0.0 | 0.0 | 0.00 | 0.00 | 0.00 | 87 | 1010.3 |
| 20260903063513 | 78 | 207 | 0.0 | 0.0 | 0.00 | 0.00 | 0.00 | 87 | 1010.3 |
| 20260903063229 | 78 | 153 | 0.0 | 0.0 | 0.00 | 0.00 | 0.00 | 87 | 1010.3 |
| 20260903062716 | 78 | 236 | 0.0 | 0.0 | 0.00 | 0.00 | 0.00 | 87 | 1010.3 |
| 20260903061942 | 78 | 214 | 0.0 | 0.0 | 0.00 | 0.00 | 0.00 | 87 | 1010.3 |
| 20260903061430 | 78 | 213 | 0.0 | 1.0 | 0.00 | 0.00 | 0.00 | 87 | 1010.5 |
| 20260903060923 | 78 | 212 | 0.0 | 2.0 | 0.00 | 0.00 | 0.00 | 87 | 1010.5 |
| 20260903060423 | 78 | 219 | 1.0 | 2.0 | 0.00 | 0.00 | 0.00 | 87 | 1010.5 |
| 20260903055923 | 78 | 227 | 1.0 | 4.0 | 0.00 | 0.00 | 0.00 | 87 | 1010.4 |
| 20260903055644 | 78 | 227 | 2.0 | 4.0 | 0.00 | 0.00 | 0.00 | 87 | 1010.4 |
| 20260903054926 | 78 | 238 | 2.0 | 5.0 | 0.00 | 0.00 | 0.00 | 87 | 1010.4 |
| 20260903054423 | 78 | 236 | 2.0 | 5.0 | 0.00 | 0.00 | 0.00 | 86 | 1010.4 |
| 20260903053923 | 78 | 238 | 2.0 | 4.0 | 0.00 | 0.00 | 0.00 | 87 | 1010.4 |
| 20260903053421 | 78 | 228 | 2.0 | 4.0 | 0.00 | 0.00 | 0.00 | 86 | 1010.4 |
| 20260903052920 | 78 | 217 | 2.0 | 4.0 | 0.00 | 0.00 | 0.00 | 86 | 1010.3 |
| 20260903052419 | 78 | 225 | 2.0 | 4.0 | 0.00 | 0.00 | 0.00 | 86 | 1010.3 |
| 20260903051913 | 78 | 223 | 2.0 | 4.0 | 0.00 | 0.00 | 0.00 | 86 | 1010.3 |
| 20260903051409 | 78 | 226 | 2.0 | 4.0 | 0.00 | 0.00 | 0.00 | 86 | 1010.2 |
| 20260903050903 | 78 | 226 | 1.0 | 4.0 | 0.00 | 0.00 | 0.00 | 86 | 1010.2 |
| 20260903050352 | 79 | 213 | 1.0 | 3.0 | 0.00 | 0.00 | 0.00 | 86 | 1010.2 |
| 20260903045850 | 79 | 212 | 0.0 | 3.0 | 0.00 | 0.00 | 0.00 | 86 | 1010.2 |
| 20260903045339 | 79 | 217 | 0.0 | 0.0 | 0.00 | 0.00 | 0.00 | 86 | 1010.2 |
| 20260903044825 | 79 | 204 | 1.0 | 3.0 | 0.00 | 0.00 | 0.00 | 86 | 1010.2 |
| 20260903044313 | 79 | 218 | 2.0 | 5.0 | 0.00 | 0.00 | 0.00 | 86 | 1010.2 |
| 20260903043803 | 79 | 199 | 2.0 | 5.0 | 0.00 | 0.00 | 0.00 | 86 | 1010.2 |
| 20260903043251 | 79 | 159 | 1.0 | 3.0 | 0.00 | 0.00 | 0.00 | 85 | 1010.2 |
| 20260903042737 | 79 | 209 | 2.0 | 6.0 | 0.00 | 0.00 | 0.00 | 85 | 1010.2 |
| 20260903042228 | 79 | 218 | 1.0 | 6.0 | 0.00 | 0.00 | 0.00 | 85 | 1010.2 |
| 20260903041720 | 79 | 195 | 1.0 | 4.0 | 0.00 | 0.00 | 0.00 | 85 | 1010.2 |
| 20260903041213 | 80 | 221 | 2.0 | 4.0 | 0.00 | 0.00 | 0.00 | 85 | 1010.2 |
| 20260903040704 | 80 | 223 | 2.0 | 4.0 | 0.00 | 0.00 | 0.00 | 85 | 1010.2 |
| 20260903040201 | 80 | 187 | 2.0 | 5.0 | 0.00 | 0.00 | 0.00 | 85 | 1010.2 |
| 20260903035656 | 80 | 221 | 1.0 | 4.0 | 0.00 | 0.00 | 0.00 | 85 | 1010.2 |
| 20260903035410 | 80 | 173 | 1.0 | 4.0 | 0.00 | 0.00 | 0.00 | 85 | 1010.2 |
| 20260903034643 | 80 | 231 | 1.0 | 4.0 | 0.00 | 0.00 | 0.00 | 85 | 1010.2 |
| 20260903034137 | 80 | 219 | 2.0 | 4.0 | 0.00 | 0.00 | 0.00 | 85 | 1010.1 |
| 20260903033633 | 80 | 222 | 2.0 | 4.0 | 0.00 | 0.00 | 0.00 | 85 | 1010.1 |
| 20260903033122 | 80 | 225 | 2.0 | 4.0 | 0.00 | 0.00 | 0.00 | 85 | 1010.1 |
| 20260903032620 | 80 | 219 | 1.0 | 4.0 | 0.00 | 0.00 | 0.00 | 85 | 1010.2 |
| 20260903032115 | 80 | 198 | 1.0 | 4.0 | 0.00 | 0.00 | 0.00 | 85 | 1010.2 |
| 20260903031609 | 80 | 220 | 2.0 | 5.0 | 0.00 | 0.00 | 0.00 | 85 | 1010.2 |
| 20260903031103 | 81 | 215 | 2.0 | 5.0 | 0.00 | 0.00 | 0.00 | 85 | 1010.1 |
| 20260903030551 | 81 | 217 | 2.0 | 4.0 | 0.00 | 0.00 | 0.00 | 85 | 1010.1 |
| 20260903030049 | 81 | 232 | 2.0 | 4.0 | 0.00 | 0.00 | 0.00 | 84 | 1010.1 |
| 20260903025544 | 81 | 223 | 1.0 | 3.0 | 0.00 | 0.00 | 0.00 | 84 | 1010.2 |
| 20260903025037 | 81 | 218 | 1.0 | 3.0 | 0.00 | 0.00 | 0.00 | 84 | 1010.2 |
| 20260903024531 | 81 | 200 | 2.0 | 4.0 | 0.00 | 0.00 | 0.00 | 84 | 1010.2 |
| 20260903024021 | 81 | 213 | 2.0 | 5.0 | 0.00 | 0.00 | 0.00 | 84 | 1010.2 |
| 20260903023519 | 82 | 218 | 3.0 | 5.0 | 0.00 | 0.00 | 0.00 | 83 | 1010.2 |
| 20260903023014 | 82 | 227 | 2.0 | 5.0 | 0.00 | 0.00 | 0.00 | 83 | 1010.2 |
| 20260903022507 | 82 | 232 | 2.0 | 5.0 | 0.00 | 0.00 | 0.00 | 83 | 1010.0 |
| 20260903022228 | 82 | 192 | 2.0 | 4.0 | 0.00 | 0.00 | 0.00 | 82 | 1010.0 |
| 20260903021455 | 82 | 217 | 2.0 | 3.0 | 0.00 | 0.00 | 0.00 | 82 | 1010.1 |
| 20260903020951 | 82 | 190 | 2.0 | 5.0 | 0.00 | 0.00 | 0.00 | 82 | 1010.1 |
| 20260903020444 | 82 | 207 | 2.0 | 5.0 | 0.00 | 0.00 | 0.00 | 82 | 1010.1 |
| 20260903015938 | 82 | 167 | 2.0 | 4.0 | 0.00 | 0.00 | 0.00 | 82 | 1010.0 |
| 20260903015432 | 83 | 181 | 1.0 | 4.0 | 0.00 | 0.00 | 0.00 | 82 | 1010.0 |
| 20260903014926 | 83 | 233 | 1.0 | 3.0 | 0.00 | 0.00 | 0.00 | 81 | 1010.0 |
| 20260903014419 | 83 | 188 | 1.0 | 4.0 | 0.00 | 0.00 | 0.00 | 81 | 1010.0 |
| 20260903013909 | 83 | 184 | 1.0 | 4.0 | 0.00 | 0.00 | 0.00 | 81 | 1010.0 |
| 20260903013407 | 83 | 194 | 1.0 | 3.0 | 0.00 | 0.00 | 0.00 | 81 | 1010.0 |
| 20260903013128 | 84 | 219 | 1.0 | 3.0 | 0.00 | 0.00 | 0.00 | 81 | 1009.7 |
| 20260903012354 | 84 | 229 | 1.0 | 6.0 | 0.00 | 0.00 | 0.00 | 80 | 1009.7 |
| 20260903011850 | 84 | 229 | 2.0 | 6.0 | 0.00 | 0.00 | 0.00 | 80 | 1009.7 |
| 20260903011342 | 84 | 214 | 2.0 | 5.0 | 0.00 | 0.00 | 0.00 | 79 | 1009.6 |
| 20260903010837 | 84 | 204 | 2.0 | 5.0 | 0.00 | 0.00 | 0.00 | 79 | 1009.6 |
| 20260903010329 | 85 | 211 | 2.0 | 5.0 | 0.00 | 0.00 | 0.00 | 79 | 1009.6 |
| 20260903005822 | 85 | 176 | 2.0 | 6.0 | 0.00 | 0.00 | 0.00 | 79 | 1009.5 |
| 20260903005322 | 85 | 248 | 2.0 | 6.0 | 0.00 | 0.00 | 0.00 | 78 | 1009.5 |
| 20260903004822 | 85 | 232 | 1.0 | 4.0 | 0.00 | 0.00 | 0.00 | 78 | 1009.5 |
| 20260903004322 | 85 | 169 | 1.0 | 4.0 | 0.00 | 0.00 | 0.00 | 78 | 1009.5 |
| 20260903003822 | 86 | 217 | 2.0 | 6.0 | 0.00 | 0.00 | 0.00 | 78 | 1009.5 |
| 20260903003323 | 86 | 239 | 3.0 | 6.0 | 0.00 | 0.00 | 0.00 | 77 | 1009.5 |
| 20260903002825 | 86 | 192 | 2.0 | 6.0 | 0.00 | 0.00 | 0.00 | 77 | 1009.5 |
| 20260903002320 | 87 | 194 | 2.0 | 6.0 | 0.00 | 0.00 | 0.00 | 76 | 1009.5 |
| 20260903001822 | 87 | 189 | 2.0 | 5.0 | 0.00 | 0.00 | 0.00 | 76 | 1009.5 |
| 20260903001317 | 87 | 230 | 2.0 | 5.0 | 0.00 | 0.00 | 0.00 | 76 | 1009.5 |
| 20260903001030 | 87 | 203 | 2.0 | 5.0 | 0.00 | 0.00 | 0.00 | 75 | 1009.5 |
| 20260903000304 | 88 | 184 | 2.0 | 7.0 | 0.00 | 0.00 | 0.00 | 75 | 1009.5 |
| 20260902235758 | 88 | 206 | 2.0 | 7.0 | 0.00 | 0.00 | 0.00 | 75 | 1009.7 |
| 20260902235254 | 88 | 207 | 2.0 | 5.0 | 0.00 | 0.00 | 0.00 | 74 | 1009.7 |
| 20260902235226 | 89 | 208 | 2.0 | 5.0 | 0.00 | 0.00 | 0.00 | 74 | 1009.7 |
| 20260902234457 | 89 | 236 | 3.0 | 8.0 | 0.00 | 0.00 | 0.00 | 74 | 1009.7 |
| 20260902233735 | 89 | 216 | 3.0 | 8.0 | 0.00 | 0.00 | 0.00 | 74 | 1009.7 |
| 20260902233710 | 89 | 227 | 2.0 | 8.0 | 0.00 | 0.00 | 0.00 | 74 | 1009.7 |
| 20260902232722 | 89 | 210 | 3.0 | 6.0 | 0.00 | 0.00 | 0.00 | 74 | 1009.8 |
| 20260902232704 | 90 | 196 | 3.0 | 7.0 | 0.00 | 0.00 | 0.00 | 73 | 1009.8 |
| 20260902231705 | 90 | 218 | 3.0 | 7.0 | 0.00 | 0.00 | 0.00 | 73 | 1009.8 |
| 20260902231206 | 90 | 222 | 3.0 | 8.0 | 0.00 | 0.00 | 0.00 | 72 | 1009.7 |
| 20260902230700 | 91 | 215 | 3.0 | 9.0 | 0.00 | 0.00 | 0.00 | 72 | 1009.7 |
| 20260902230153 | 91 | 215 | 3.0 | 9.0 | 0.00 | 0.00 | 0.00 | 71 | 1009.7 |
| 20260902225644 | 91 | 214 | 4.0 | 9.0 | 0.00 | 0.00 | 0.00 | 71 | 1009.7 |
| 20260902225141 | 91 | 225 | 3.0 | 9.0 | 0.00 | 0.00 | 0.00 | 70 | 1009.7 |
| 20260902224634 | 91 | 148 | 4.0 | 9.0 | 0.00 | 0.00 | 0.00 | 70 | 1009.7 |
| 20260902224347 | 92 | 171 | 4.0 | 7.0 | 0.00 | 0.00 | 0.00 | 69 | 1009.8 |
| 20260902224110 | 92 | 209 | 4.0 | 8.0 | 0.00 | 0.00 | 0.00 | 70 | 1009.8 |
| 20260902223116 | 92 | 132 | 4.0 | 10.0 | 0.00 | 0.00 | 0.00 | 69 | 1009.8 |
| 20260902222610 | 92 | 200 | 4.0 | 10.0 | 0.00 | 0.00 | 0.00 | 68 | 1009.8 |
| 20260902222104 | 92 | 227 | 4.0 | 8.0 | 0.00 | 0.00 | 0.00 | 68 | 1009.8 |
| 20260902221605 | 92 | 232 | 4.0 | 8.0 | 0.00 | 0.00 | 0.00 | 68 | 1009.8 |
| 20260902221324 | 92 | 218 | 3.0 | 9.0 | 0.00 | 0.00 | 0.00 | 67 | 1009.8 |
| 20260902220604 | 92 | 224 | 3.0 | 9.0 | 0.00 | 0.00 | 0.00 | 68 | 1009.8 |
| 20260902220104 | 92 | 204 | 4.0 | 9.0 | 0.00 | 0.00 | 0.00 | 68 | 1009.8 |
| 20260902215604 | 92 | 238 | 4.0 | 11.0 | 0.00 | 0.00 | 0.00 | 66 | 1010.0 |
| 20260902215326 | 92 | 200 | 5.0 | 11.0 | 0.00 | 0.00 | 0.00 | 66 | 1010.0 |
| 20260902215044 | 93 | 233 | 5.0 | 11.0 | 0.00 | 0.00 | 0.00 | 65 | 1010.0 |
| 20260902214104 | 93 | 201 | 4.0 | 11.0 | 0.00 | 0.00 | 0.00 | 64 | 1010.1 |
| 20260902213603 | 93 | 232 | 4.0 | 12.0 | 0.00 | 0.00 | 0.00 | 65 | 1010.1 |
| 20260902213548 | 94 | 146 | 6.0 | 14.0 | 0.00 | 0.00 | 0.00 | 64 | 1010.1 |
| 20260902212603 | 93 | 236 | 7.0 | 14.0 | 0.00 | 0.00 | 0.00 | 63 | 1010.1 |
| 20260902212101 | 94 | 239 | 6.0 | 11.0 | 0.00 | 0.00 | 0.00 | 63 | 1010.1 |
| 20260902211602 | 94 | 221 | 5.0 | 10.0 | 0.00 | 0.00 | 0.00 | 64 | 1010.1 |
| 20260902211102 | 94 | 235 | 5.0 | 10.0 | 0.00 | 0.00 | 0.00 | 63 | 1010.1 |
| 20260902210602 | 93 | 226 | 6.0 | 11.0 | 0.00 | 0.00 | 0.00 | 64 | 1010.1 |
| 20260902210324 | 93 | 244 | 6.0 | 13.0 | 0.00 | 0.00 | 0.00 | 63 | 1010.1 |
| 20260902205558 | 94 | 211 | 5.0 | 13.0 | 0.00 | 0.00 | 0.00 | 63 | 1010.2 |
| 20260902205046 | 94 | 257 | 5.0 | 11.0 | 0.00 | 0.00 | 0.00 | 64 | 1010.2 |
| 20260902204546 | 94 | 197 | 4.0 | 11.0 | 0.00 | 0.00 | 0.00 | 63 | 1010.2 |
| 20260902204046 | 94 | 221 | 4.0 | 11.0 | 0.00 | 0.00 | 0.00 | 62 | 1010.2 |
| 20260902203546 | 94 | 227 | 5.0 | 14.0 | 0.00 | 0.00 | 0.00 | 60 | 1010.2 |
| 20260902203310 | 94 | 202 | 6.0 | 14.0 | 0.00 | 0.00 | 0.00 | 61 | 1010.2 |